When you browse on this site, cookies collect data to enhance your experience and personalize the content and advertising you see.
Visit our Privacy Policy to learn more. By continuing to use the site, you agree to this use of cookies and data.
  • In Austria
  • List of Countries
  • For 7 days
  • Water Temperature
  • Satellite Maps
  • Weather Map
  • News
  • Weather Widgets
  • user-avatar
    Login

    Hourly Weather Gdansk

    Today, 22 May, Wednesday

    Time Temperature Precipitation Wind Pressure Humidity
    00:00 +16°C° 0 mm 2 mps 750 mmHg 95%
    01:00 +16°C° 0 mm 3 mps 750 mmHg 97%
    02:00 +16°C° 0.1 mm 3 mps 750 mmHg 97%
    03:00 +15°C° 0.1 mm 2 mps 750 mmHg 98%
    04:00 +15°C° 0.1 mm 2 mps 750 mmHg 98%
    05:00 +16°C° 0 mm 2 mps 750 mmHg 96%
    06:00 +17°C° 0 mm 2 mps 750 mmHg 93%
    07:00 +19°C° 0 mm 1 mps 751 mmHg 91%
    08:00 +19°C° 0 mm 2 mps 751 mmHg 85%
    09:00 +20°C° 0 mm 2 mps 751 mmHg 80%
    10:00 +21°C° 0 mm 2 mps 751 mmHg 74%
    11:00 +23°C° 0 mm 2 mps 751 mmHg 72%
    12:00 +22°C° 0 mm 3 mps 751 mmHg 69%
    13:00 +24°C° 0 mm 3 mps 751 mmHg 66%
    14:00 +22°C° 0 mm 3 mps 751 mmHg 69%
    15:00 +22°C° 0 mm 4 mps 751 mmHg 71%
    16:00 +21°C° 0 mm 4 mps 751 mmHg 74%
    17:00 +20°C° 0 mm 3 mps 751 mmHg 78%
    18:00 +19°C° 0 mm 3 mps 751 mmHg 83%
    19:00 +18°C° 0 mm 2 mps 751 mmHg 88%
    20:00 +17°C° 0 mm 2 mps 752 mmHg 90%
    21:00 +16°C° 0 mm 2 mps 752 mmHg 93%
    22:00 +15°C° 0 mm 2 mps 752 mmHg 95%
    23:00 +14°C° 0 mm 3 mps 752 mmHg 96%

    Tomorrow, 23 May, Thursday

    Time Temperature Precipitation Wind Pressure Humidity
    00:00 +13°C° 0 mm 3 mps 753 mmHg 96%
    01:00 +13°C° 0 mm 4 mps 753 mmHg 97%
    02:00 +13°C° 0 mm 4 mps 753 mmHg 95%
    03:00 +13°C° 0 mm 4 mps 753 mmHg 94%
    04:00 +13°C° 0 mm 5 mps 753 mmHg 93%
    05:00 +14°C° 0 mm 5 mps 753 mmHg 90%
    06:00 +14°C° 0 mm 5 mps 754 mmHg 87%
    07:00 +15°C° 0 mm 6 mps 754 mmHg 84%
    08:00 +15°C° 0 mm 6 mps 754 mmHg 82%
    09:00 +16°C° 0 mm 6 mps 755 mmHg 81%
    10:00 +16°C° 0 mm 6 mps 755 mmHg 79%
    11:00 +16°C° 0 mm 6 mps 755 mmHg 79%
    12:00 +15°C° 0 mm 6 mps 755 mmHg 78%
    13:00 +15°C° 0 mm 6 mps 756 mmHg 78%
    14:00 +15°C° 0 mm 6 mps 756 mmHg 74%
    15:00 +15°C° 0 mm 6 mps 756 mmHg 70%
    16:00 +15°C° 0 mm 5 mps 756 mmHg 66%
    17:00 +14°C° 0 mm 5 mps 756 mmHg 68%
    18:00 +14°C° 0 mm 5 mps 756 mmHg 69%
    19:00 +13°C° 0 mm 4 mps 756 mmHg 71%
    20:00 +12°C° 0 mm 5 mps 756 mmHg 73%
    21:00 +12°C° 0 mm 5 mps 756 mmHg 76%
    22:00 +10°C° 0 mm 5 mps 757 mmHg 78%
    23:00 +10°C° 0 mm 5 mps 756 mmHg 81%

    Day after tomorrow, 24 May, Friday

    Time Temperature Precipitation Wind Pressure Humidity
    00:00 +9°C° 0 mm 5 mps 756 mmHg 83%
    01:00 +9°C° 0 mm 5 mps 756 mmHg 85%
    02:00 +9°C° 0 mm 5 mps 756 mmHg 87%
    03:00 +9°C° 0 mm 5 mps 756 mmHg 88%
    04:00 +9°C° 0 mm 5 mps 756 mmHg 89%
    05:00 +10°C° 0 mm 5 mps 756 mmHg 85%
    06:00 +13°C° 0 mm 4 mps 756 mmHg 80%
    07:00 +14°C° 0 mm 4 mps 756 mmHg 75%
    08:00 +15°C° 0 mm 4 mps 756 mmHg 71%
    09:00 +18°C° 0 mm 3 mps 756 mmHg 66%
    10:00 +19°C° 0 mm 3 mps 756 mmHg 61%
    11:00 +19°C° 0 mm 3 mps 756 mmHg 61%
    12:00 +20°C° 0 mm 3 mps 756 mmHg 60%
    13:00 +20°C° 0 mm 2 mps 756 mmHg 59%
    14:00 +20°C° 0.1 mm 2 mps 755 mmHg 62%
    15:00 +19°C° 0.1 mm 2 mps 755 mmHg 65%
    16:00 +19°C° 0.1 mm 2 mps 755 mmHg 67%
    17:00 +18°C° 0.1 mm 2 mps 754 mmHg 72%
    18:00 +17°C° 0.1 mm 2 mps 754 mmHg 77%
    19:00 +16°C° 0.1 mm 1 mps 754 mmHg 82%
    20:00 +15°C° 0.1 mm 1 mps 754 mmHg 85%
    21:00 +14°C° 0.1 mm 1 mps 754 mmHg 88%
    22:00 +13°C° 0.1 mm 1 mps 754 mmHg 91%
    23:00 +13°C° 0.1 mm 2 mps 754 mmHg 90%

    25 May, Saturday

    Time Temperature Precipitation Wind Pressure Humidity
    00:00 +13°C° 0.1 mm 2 mps 753 mmHg 89%
    01:00 +13°C° 0.1 mm 2 mps 753 mmHg 89%
    02:00 +11°C° 0 mm 3 mps 753 mmHg 88%
    03:00 +11°C° 0 mm 3 mps 753 mmHg 88%
    04:00 +10°C° 0 mm 3 mps 753 mmHg 88%
    05:00 +11°C° 0 mm 4 mps 753 mmHg 84%
    06:00 +12°C° 0 mm 4 mps 753 mmHg 80%
    07:00 +13°C° 0 mm 5 mps 753 mmHg 76%
    08:00 +14°C° 0 mm 5 mps 753 mmHg 73%
    09:00 +15°C° 0 mm 5 mps 753 mmHg 70%
    10:00 +15°C° 0 mm 5 mps 753 mmHg 67%
    11:00 +16°C° 0 mm 5 mps 753 mmHg 65%
    12:00 +16°C° 0 mm 5 mps 753 mmHg 63%
    13:00 +17°C° 0 mm 5 mps 753 mmHg 60%
    14:00 +17°C° 0 mm 6 mps 753 mmHg 61%
    15:00 +16°C° 0 mm 6 mps 753 mmHg 62%
    16:00 +16°C° 0 mm 6 mps 753 mmHg 62%
    17:00 +15°C° 0 mm 5 mps 753 mmHg 67%
    18:00 +14°C° 0 mm 5 mps 753 mmHg 72%
    19:00 +12°C° 0 mm 5 mps 752 mmHg 76%
    20:00 +10°C° 0 mm 5 mps 752 mmHg 79%
    21:00 +10°C° 0 mm 4 mps 752 mmHg 81%
    22:00 +8°C° 0 mm 4 mps 752 mmHg 84%
    23:00 +8°C° 0 mm 4 mps 752 mmHg 85%

    26 May, Sunday

    Time Temperature Precipitation Wind Pressure Humidity
    00:00 +8°C° 0 mm 5 mps 752 mmHg 86%
    01:00 +8°C° 0 mm 5 mps 751 mmHg 87%
    02:00 +9°C° 0.1 mm 5 mps 751 mmHg 87%
    03:00 +9°C° 0.1 mm 5 mps 751 mmHg 87%
    04:00 +9°C° 0.1 mm 5 mps 750 mmHg 87%
    05:00 +9°C° 0.1 mm 6 mps 750 mmHg 85%
    06:00 +9°C° 0.1 mm 6 mps 750 mmHg 84%
    07:00 +9°C° 0.1 mm 6 mps 750 mmHg 82%
    08:00 +9°C° 0.1 mm 6 mps 750 mmHg 81%
    09:00 +9°C° 0.1 mm 7 mps 750 mmHg 79%
    10:00 +9°C° 0.1 mm 7 mps 750 mmHg 78%
    11:00 +9°C° 0.2 mm 7 mps 750 mmHg 75%
    12:00 +9°C° 0.2 mm 8 mps 750 mmHg 71%
    13:00 +10°C° 0.2 mm 8 mps 750 mmHg 68%
    14:00 +9°C° 0.2 mm 8 mps 750 mmHg 70%
    15:00 +9°C° 0.2 mm 8 mps 749 mmHg 73%
    16:00 +9°C° 0.2 mm 8 mps 749 mmHg 76%
    17:00 +7°C° 0.1 mm 9 mps 749 mmHg 77%
    18:00 +7°C° 0.1 mm 9 mps 749 mmHg 77%
    19:00 +7°C° 0.1 mm 10 mps 748 mmHg 78%
    20:00 +7°C° 0 mm 10 mps 748 mmHg 78%
    21:00 +7°C° 0 mm 9 mps 749 mmHg 79%
    22:00 +7°C° 0 mm 9 mps 749 mmHg 79%
    23:00 +7°C° 0 mm 9 mps 749 mmHg 79%

    27 May, Monday

    Time Temperature Precipitation Wind Pressure Humidity
    00:00 +7°C° 0 mm 9 mps 749 mmHg 79%
    01:00 +9°C° 0 mm 8 mps 750 mmHg 79%
    02:00 +7°C° 0 mm 8 mps 750 mmHg 80%
    03:00 +8°C° 0 mm 7 mps 751 mmHg 81%
    04:00 +8°C° 0 mm 7 mps 751 mmHg 81%
    05:00 +8°C° 0 mm 6 mps 751 mmHg 80%
    06:00 +9°C° 0 mm 6 mps 752 mmHg 78%
    07:00 +9°C° 0 mm 6 mps 752 mmHg 76%
    08:00 +10°C° 0 mm 5 mps 752 mmHg 73%
    09:00 +12°C° 0 mm 5 mps 752 mmHg 69%
    10:00 +13°C° 0 mm 4 mps 753 mmHg 65%
    11:00 +14°C° 0 mm 4 mps 753 mmHg 61%
    12:00 +14°C° 0 mm 3 mps 753 mmHg 57%
    13:00 +16°C° 0 mm 3 mps 753 mmHg 53%
    14:00 +16°C° 0.1 mm 2 mps 752 mmHg 59%
    15:00 +15°C° 0.1 mm 2 mps 752 mmHg 64%
    16:00 +14°C° 0.1 mm 2 mps 752 mmHg 70%
    17:00 +14°C° 0.3 mm 1 mps 751 mmHg 76%
    18:00 +13°C° 0.3 mm 1 mps 751 mmHg 81%
    19:00 +12°C° 0.3 mm 1 mps 751 mmHg 87%
    20:00 +11°C° 2.1 mm 1 mps 750 mmHg 90%
    21:00 +10°C° 2.1 mm 2 mps 750 mmHg 92%
    22:00 +10°C° 2.1 mm 2 mps 750 mmHg 95%
    23:00 +10°C° 0.1 mm 2 mps 750 mmHg 96%
    Show more